Location: Newark
(37.7892°N, 97.1083°W)
Time: 13:48:36
(UTC+00:00)

LightSail 2 - Pass Details

Date: 09 December 2019
Orbit: 704 x 720 km, 24.0° (Epoch: 20 January)

Event Time Altitude Azimuth Distance (km) Brightness Sun altitude
Rises 23:34:54 0° 245° (WSW) 3,098 11.5 -5.3°
Reaches altitude 10° 23:38:17 10° 223° (SW) 2,174 9.0 -5.9°
Maximum altitude 23:41:12 15° 188° (S) 1,835 7.7 -6.5°
Drops below altitude 10° 23:44:08 10° 153° (SSE) 2,165 7.6 -7.0°
Sets 23:47:30 0° 130° (SE) 3,079 8.2 -7.6°
